Location: Beaurevoir
(49.9971°N, 3.3085°E)
Time: 12:05:17
(UTC+00:00)

Cosmos 1833 - Pass Details

Date: 23 May 2024
Orbit: 835 x 863 km, 70.9° (Epoch: 14 June)

Event Time Altitude Azimuth Distance (km) Brightness Sun altitude
Exits shadow 02:58:20 - 213° (SSW) 2,626 6.1 -7.3°
Reaches altitude 10° 02:58:46 10° 213° (SSW) 2,463 6.0 -7.2°
Maximum altitude 03:04:25 78° 300° (WNW) 865 4.3 -6.6°
Drops below altitude 10° 03:10:05 10° 27° (NNE) 2,463 8.0 -5.9°
Sets 03:12:32 0° 29° (NNE) 3,399 9.0 -5.6°
